TimePDT,TemperatureF,Dew PointF,Humidity,Sea Level PressureIn,VisibilityMPH,Wind Direction,Wind SpeedMPH,Gust SpeedMPH,PrecipitationIn,Events,Conditions,WindDirDegrees,DateUTC
12:58 AM,65.1,29.8,27,29.88,10.0,NE,4.6,-,N/A,,Clear,40,2013-09-24 07:58:00
1:58 AM,64.6,29.8,27,29.90,10.0,NNE,2.3,-,N/A,,Clear,30,2013-09-24 08:58:00
2:58 AM,63.5,31.1,30,29.89,10.0,ENE,4.6,-,N/A,,Clear,60,2013-09-24 09:58:00
3:58 AM,63.7,30.4,29,29.88,10.0,NNW,2.3,-,N/A,,Clear,340,2013-09-24 10:58:00
4:58 AM,61.9,30.4,31,29.89,10.0,NNE,4.6,-,N/A,,Clear,20,2013-09-24 11:58:00
5:58 AM,61.5,31.6,33,29.90,10.0,West,5.8,-,N/A,,Clear,280,2013-09-24 12:58:00
6:58 AM,59.4,31.8,35,29.91,10.0,NNW,3.5,-,N/A,,Clear,340,2013-09-24 13:58:00
7:58 AM,62.2,31.5,31,29.94,10.0,Calm,Calm,-,N/A,,Clear,0,2013-09-24 14:58:00
8:58 AM,67.1,32.7,28,29.94,10.0,ESE,3.5,-,N/A,,Clear,120,2013-09-24 15:58:00
9:58 AM,78.1,34.3,20,29.92,10.0,WSW,3.5,-,N/A,,Clear,250,2013-09-24 16:58:00
10:58 AM,79.9,34.9,20,29.90,8.0,SE,2.3,-,N/A,,Clear,130,2013-09-24 17:58:00
11:58 AM,83.1,33.1,16,29.87,10.0,East,6.9,-,N/A,,Clear,100,2013-09-24 18:58:00
12:58 PM,86.9,31.5,14,29.83,10.0,ESE,10.4,-,N/A,,Clear,120,2013-09-24 19:58:00
1:58 PM,89.6,31.3,12,29.78,10.0,ESE,9.2,-,N/A,,Clear,120,2013-09-24 20:58:00
2:58 PM,90.9,30.2,11,29.73,10.0,SE,15.0,20.7,N/A,,Clear,140,2013-09-24 21:58:00
3:58 PM,91.9,30.9,11,29.70,10.0,SSE,10.4,-,N/A,,Clear,150,2013-09-24 22:58:00
4:58 PM,91.8,30.7,11,29.67,10.0,SSE,18.4,-,N/A,,Clear,160,2013-09-24 23:58:00
5:26 PM,91.4,32.0,12,29.73,10.0,SSW,15.0,24.2,N/A,,Clear,200,2013-09-25 00:26:00
5:58 PM,90.5,29.3,11,29.67,10.0,SSW,16.1,25.3,N/A,,Clear,210,2013-09-25 00:58:00
6:58 PM,86.9,29.1,12,29.66,10.0,SSW,15.0,-,N/A,,Clear,210,2013-09-25 01:58:00
7:58 PM,85.1,29.5,13,29.67,10.0,South,11.5,-,N/A,,Clear,180,2013-09-25 02:58:00
8:58 PM,84.9,29.5,13,29.66,10.0,South,16.1,-,N/A,,Clear,170,2013-09-25 03:58:00
9:58 PM,82.9,30.6,15,29.66,10.0,South,8.1,-,N/A,,Clear,180,2013-09-25 04:58:00
10:58 PM,84.0,30.6,14,29.64,10.0,South,18.4,-,N/A,,Clear,180,2013-09-25 05:58:00
11:58 PM,82.0,30.6,15,29.62,10.0,South,18.4,20.7,N/A,,Clear,170,2013-09-25 06:58:00